DECAYED

STARLINK-3050, 49180 (Decayed)

Orbit data source: Space-Track

STARLINK-3050, 49180 was a payload satellite owned by SpaceX/Seattle (US) in LEO that was launched on Tue, 14 Sep 2021 UTC via an FALCON 9 launch vehicle from the Air Force Western Test Range (AFWTR). Payload-class satellites include a variety of spacecraft equipped with specific instruments for various scientific and technological missions. These include communications satellites like Starlink; space stations such as the ISS; scientific satellites like the Hubble; Earth observation satellites from companies like Planet Labs, Umbra, and HawkEye 360; GPS; miniature CubeSats for education and research; and military/defense satellites.

Not visible in the next 10 days
Identifier
49180, 2021-082BC
Orbit
Decayed
Country
Flag of USUS
Related business
Manufacturer
SpaceX/Seattle
Mission
Decayed Commercial Communications
Bus & Motor
STARLINK, Unknown motor
Mass
297 kg wet, ~275 kg dry
Launch date (UTC)
2021-09-14 (5 years ago)
Launch vehicle
FALCON 9
Launch site
Air Force Western Test Range (AFWTR)
Object type
Payload
Rocket body
Debris
Shape & HBR
Box + 1 Pan, 10.1 m
Radar Cross Section
13.562 m², Large (>1 m²)

Expand to show TLE details & history
Last TLE update: 3 months ago

TLE from 3 months ago
0 STARLINK-3050
1 49180U 21082BC  26084.20034426  .13125252  44702-5  18141-3 0  9997
2 49180  69.9781 215.8793 0009491 294.1172  65.9070 16.48580466250459
Epoch: 2026-03-25T04:48Z
TLE epoch observation values (Epoch: 2026-03-25T04:48:29.744Z)
Latitude
-0°
Longitude
-38.91169°
Altitude
143.136 km
Speed
7.822 km/s
True Right ascension
14h 23m 31s
True Declination
0° 00' 00"
Sunlit
Object was in full shadow at epoch
Visualization orbit readout
Latitude
Unknown
Longitude
Unknown
Altitude
Unknown
Speed
Unknown
Apparent Right ascension
Unknown
Apparent Declination
Unknown
Sunlit
N/A
Visualization observer readout
Local Sidereal Time
21:06:56
Azimuth
Unknown
Elevation
Unknown
Doppler factor
Unknown
Orbital elements
Apogee altitude
147.079 km
Perigee altitude
134.704 km
Semi-major axis
6,519.029 km
Eccentricity
0.00095
Inclination
69.9781°
RAAN
215.8793°
Arg. of periapsis
294.1172°
True anomaly
66.00633°
Mean anomaly
65.907°
Eccentric anomaly
65.95666°
Mean motion
4.12353 °/min
Orbital period
87.3 mins
BSTAR
0.00018141
Loading maneuver chart data...
Computing Atmospheric mass density...
Loading historical data...
Loading historical data...
Loading historical data...
Loading historical data...
Loading historical data...
Loading historical data...
Loading historical data...

Documentation

Showing up to 5 results
|